Regional Weather Roundup
Issued by NWS

Home | Current Version | Previous Version | Graphics & Text | Print | Product List | Glossary On
Versions: 1 2 3 4 5 6 7 8 9 10 11 12 13 14 15 16 17 18 19 20 21 22 23 24 25 26 27 28 29 30 31 32 33 34 35 36 37 38 39 40 41 42 43 44 45 46 47 48 49 50
000
ASUS43 KLOT 192210
RWRIL

ILLINOIS REGIONAL WEATHER ROUNDUP
NATIONAL WEATHER SERVICE CHICAGO/ROMEOVILLE IL
400 PM CST FRI DEC 19 2014

NOTE: "FAIR" INDICATES FEW OR NO CLOUDS BELOW 12,000 FEET WITH NO
SIGNIFICANT WEATHER AND/OR OBSTRUCTIONS TO VISIBILITY.

* THESE STATIONS ARE NOT UNDER NWS QUALITY CONTROL. THEY ALSO MAY NOT
  REPORT WEATHER SUCH AS PRECIPITATION OR FOG.

ILZ001-002-007-009-015-016-024-192300-
NORTHWEST ILLINOIS

CITY           SKY/WX    TMP DP  RH WIND       PRES   REMARKS
MOLINE         CLOUDY    32  20  61 E3        30.30S
STERLING*      CLOUDY    28  21  74 CALM      30.33R
SAVANNA*       CLOUDY    30  22  72 SW3       30.32R
$$

ILZ003-004-008-010-011-017-018-192300-
NORTH CENTRAL ILLINOIS

CITY           SKY/WX    TMP DP  RH WIND       PRES   REMARKS
ROCKFORD       CLOUDY    28  21  75 S3        30.33R
FREEPORT*      CLOUDY    27  21  80 CALM      30.33R
ROCHELLE*      CLOUDY    28  23  81 W5        30.32R WCI  23
DE KALB*       CLOUDY    28  22  79 CALM      30.31R
PERU*          CLOUDY    31  23  72 W5        30.32R WCI  26
$$

ILZ005-006-012>014-019>023-192300-
NORTHEAST ILLINOIS

CITY           SKY/WX    TMP DP  RH WIND       PRES   REMARKS
CHICAGO-OHARE  CLOUDY    31  22  69 S3        30.30R
CHICAGO-MIDWAY CLOUDY    33  23  66 SW5       30.31R WCI  29
AURORA         CLOUDY    32  23  69 W5        30.31R WCI  27
LANSING*       CLOUDY    32  25  76 SW5       30.31R WCI  27
JOLIET*        CLOUDY    32  24  71 SW3       30.33R
WAUKEGAN       CLOUDY    29  20  69 VRB5      30.29R WCI  24
DUPAGE AIRPORT CLOUDY    31  22  69 W5        30.30R WCI  26
KANKAKEE*      CLOUDY    32  26  80 S5        30.33R WCI  27
WHEELING       CLOUDY    30  21  69 CALM      30.32R
MORRIS*        CLOUDY    33  26  76 SW9       30.31R WCI  25
ROMEOVILLE*    CLOUDY    32  24  71 S3        30.31R
NORTHERLY ISL    N/A     33  22  64 S3          N/A
$$

LMZ740>746-192300-
SOUTHERN LAKE MICHIGAN

STATION/POSITION SKY/WX   TEMP    WIND        PRES    VSBY  WAVE
                          AIR SEA DIR/SP/G                  HT/PER
                          (F)     (DEG/KT/KT) (MB)    (MI)  (FT/S)
WAUKEGAN HARBOR            30     240/  3/  5   N/A
HARRISON CRIB              31     280/  1/  2   N/A
BURNHAM HARBOR             33     190/  7       N/A
CALUMET HARBOR             33     210/  5/  8 1024.8R
$$

ILZ025>027-034>036-040-047-049-050-058-095>099-192300-
WEST-CENTRAL ILLINOIS

CITY           SKY/WX    TMP DP  RH WIND       PRES   REMARKS
QUINCY         CLOUDY    33  27  78 CALM      30.26F
GALESBURG*     CLOUDY    32  22  65 N5        30.28F WCI  27
MACOMB*        MOCLDY    32  26  78 CALM      30.30S
JACKSONVILLE*  CLOUDY    35  27  74 NE5       30.28S WCI  31
PITTSFIELD*    CLOUDY    35  28  78 CALM      30.28S
$$

ILZ028>032-037-038-041>044-048-051>054-059>061-192300-
CENTRAL ILLINOIS

CITY           SKY/WX    TMP DP  RH WIND       PRES   REMARKS
PONTIAC        MOCLDY    31  25  80 W7        30.32S WCI  24
BLOOMINGTON    PTCLDY    29  23  78 NW5       30.29F WCI  24
DECATUR        PTCLDY    31  24  75 NE6       30.28F WCI  25
PEORIA         PTCLDY    34  20  56 CALM      30.29F
LACON*         CLOUDY    31  21  66 CALM      30.30F
LINCOLN*       PTCLDY    33  24  69 CALM      30.30F
SPRINGFIELD    MOCLDY    34  23  64 NE5       30.29F WCI  30
TAYLORVILLE    MOCLDY    32  25  74 N5        30.28F WCI  27
$$

ILZ033-039-045-046-055>057-062-063-192300-
EAST-CENTRAL ILLINOIS

CITY           SKY/WX    TMP DP  RH WIND       PRES   REMARKS
CHAMPAIGN      PTCLDY    32  24  72 CALM      30.29S
DANVILLE*      CLOUDY    30  25  81 CALM      30.28S
RANTOUL*       MOCLDY    33  26  75 CALM      30.30R
MATTOON        PTCLDY    32  24  72 NE3       30.28F
PARIS*         CLOUDY    33  27  78 CALM      30.31S
$$

ILZ079-100>102-192300-
SOUTHWEST ILLINOIS

CITY           SKY/WX    TMP DP  RH WIND       PRES   REMARKS
ALTON          CLOUDY    36  28  75 VRB5      30.29R HAZE    WCI  32
BELLEVILLE     CLOUDY    35  29  79 E3        30.27S
CAHOKIA*       CLOUDY    38  29  70 CALM      30.28R
SPARTA*        CLOUDY    36  29  77 NE3       30.28R
$$

ILZ064>066-069>071-074>076-080>082-084>086-088>090-092>094-192300-
SOUTH-CENTRAL ILLINOIS

CITY           SKY/WX    TMP DP  RH WIND       PRES   REMARKS
CARBONDALE     CLOUDY    37  27  67 NE5       30.27S WCI  33
CAIRO*         CLOUDY    41  32  70 N3        30.27R
EFFINGHAM*     PTCLDY    34  22  61 N3        30.30F
MARION         CLOUDY    37  28  70 N8        30.28S WCI  31
MT. VERNON     CLOUDY    36  23  60 NE3       30.28S
CENTRALIA*     CLOUDY    35  24  63 CALM      30.28R
SALEM*         CLOUDY    37  27  68 CALM      30.28S
METROPOLIS*    MOCLDY    40  31  71 NE3       30.25R
$$

ILZ067-068-072-073-078-083-087-091-192300-
SOUTHEAST ILLINOIS

CITY           SKY/WX    TMP DP  RH WIND       PRES   REMARKS
LAWRENCEVILLE  PTCLDY    35  24  64 N3        30.31S
FLORA*         PTCLDY    35  24  63 NE3       30.29F
FAIRFIELD*     MOCLDY    36  25  66 NE6       30.27F WCI  31
HARRISBURG*    CLOUDY    37  26  65 NE6       30.28F WCI  32
ROBINSON*      PTCLDY    33  23  67 CALM      30.32S
CARMI*         MOCLDY    37  29  71 NE5       30.27F WCI  34
$$

ABBREVIATIONS USED IN REMARKS
   TC - TEMPERATURE IN CELSIUS
  WCI - WIND CHILL INDEX
   HX - HEAT INDEX
  VSB - VISIBILITY
$$



USA.gov is the U.S. government's official web portal to all federal, state and local government web resources and services.